SCP
0 0 0 0 0 0 0 0 0 0 0 0 0 0 0 0 0 0 0 0 0 0 0 0 0 0 0 0 0 0 0 0 0 0 0 0 0 0 0 0 0 0 0
0 0 0 0 0 0 0 0 0 0 0 0 0 0 0 0 0 0 0 0 0 0 0 0 0 0 0 0 0 0 0 0 0 0 0 0 0 0 0 0 0 0 0
0 0 0 0 0 0 0 0 0 0 0 0 0 0 0 0 0 0 0 0 0 0 0 0 0 0 0 0 0 0 0 0 0 0 0 0 0 0 0 0 0 0 0
0 0 0 0 0 0 0 0 0 0 0 0 0 0 0 0 0 0 0 0 0 0 0 0 0 0 0 0 0 0 0 0 0 0 0 0 0 0 0 0 0 0 0
0 0 0 0 0 0 0 0 0 0 0 0 0 0 0 0 0 0 0 0 0 0 0 0 0 0 0 0 0 0 0 0 0 0 0 0 0 0 0 0 0 0 0
0 0 0 0 0 0 0 0 0 0 0 0 0 0 0 0 0 0 0 0 0 0 0 0 0 0 0 0 0 0 0 0 0 0 0 0 0 0 0 0 0 0 0
0 0 0 0 0 0 0 0 0 0 0 0 0 0 0 0 0 0 0 0 0 0 0 0 0 0 0 0 0 0 0 0 0 0 0 0 0 0 0 0 0 0 0
0 0 0 0 0 0 0 0 0 0 0 0 0 0 0 0 0 0 0 0 0 0 0 0 0 0 0 0 0 0 0 0 0 0 0 0 0 0 0 0 0 0 0
0 0 0 0 0 0 0 0 0 0 0 0 0 0 0 0 0 0 0 0 0 0 0 0 0 0 0 0 0 0 0 0 0 0 0 0 0 0 0 0 0 0 0
0 0 0 0 0 0 0 0 0 0 0 0 0 0 0 0 0 0 0 0 0 0 0 0 0 0 0 0 0 0 0 0 0 0 0 0 0 0 0 0 0 0 0
0 0 0 0 0 0 0 0 0 0 0 0 0 0 0 0 0 0 0 0 0 0 0 0 0 0 0 0 0 0 0 0 0 0 0 0 0 0 0 0 0 0 0
0 0 0 0 0 0 0 0 0 0 0 0 0 0 0 0 0 0 0 0 0 0 0 0 0 0 0 0 0 0 0 0 0 0 0 0 0 0 0 0 0 0 0
0 0 0 0 0 0 0 0 0 0 0 0 0 0 0 0 0 0 0 0 0 0 0 0 0 0 0 0 0 0 0 0 0 0 0 0 0 0 0 0 0 0 0
0 0 0 0 0 0 0 0 0 0 0 0 0 0 0 0 0 0 0 0 0 0 0 0 0 0 0 0 0 0 0 0 0 0 0 0 0 0 0 0 0 0 0
0 0 0 0 0 0 0 0 0 0 0 0 0 0 0 0 0 0 0 0 0 0 0 0 0 0 0 0 0 0 0 0 0 0 0 0 0 0 0 0 0 0 0
0 0 0 0 0 0 0 0 0 0 0 0 0 0 0 0 0 0 0 0 0 0 0 0 0 0 0 0 0 0 0 0 0 0 0 0 0 0 0 0 0 0 0
0 0 0 0 0 0 0 0 -0 -0 0 0 0 0 0 0 0 0 0 0 0 0 0 0 0 0 0 0 0 0 0 0 0 0 0 0 0 0 0 0 0 0 0
0 0 0 0 0 0 0 0 -0 0 0 0 0 0 0 0 0 0 0 0 0 0 0 0 0 0 0 0 0 0 0 0 0 0 0 0 0 0 0 0 0 0 0
0 0 0 0 0 0 0 0 0 0 0 0 0 0 0 0 0 0 0 0 0 0 0 0 0 0 0 0 0 0 0 0 0 0 0 0 0 0 0 0 0 0 0
0 0 0 0 0 0 0 0 0 0 0 0 0 0 0 0 0 0 0 0 0 0 -0 -0 0 0 0 0 0 0 0 0 0 0 0 0 0 0 0 0 0 0 0
0 0 0 0 0 0 0 0 0 0 0 0 0 0 0 0 0 0 0 0 0 -0 -0 -0 0 0 0 0 0 0 0 0 0 0 0 0 0 0 0 0 0 0 0
0 0 0 0 0 0 0 0 0 0 0 0 0 0 0 0 0 0 0 0 0 -0 -0 0 0 0 0 0 0 0 0 0 0 0 0 0 0 0 0 0 0 0 0
0 0 0 0 0 0 0 0 0 0 0 0 0 0 0 0 0 0 0 0 0 0 0 0 0 0 0 0 0 0 0 0 0 0 0 0 0 0 0 0 0 0 0
0 0 0 0 0 0 0 0 0 0 0 0 0 0 0 0 0 0 0 0 0 0 0 0 0 0 0 0 0 0 0 0 0 0 0 0 0 0 0 0 0 0 0
0 0 0 0 0 0 0 0 0 0 0 0 0 0 0 0 0 0 0 0 0 0 0 0 0 0 0 0 0 0 0 0 0 0 0 0 0 0 0 0 0 0 0
0 0 0 0 0 0 0 0 0 0 0 0 0 0 0 0 0 0 0 0 0 0 0 0 0 0 0 0 0 0 0 0 0 0 0 0 0 0 0 0 0 0 0
Wind_Speed
7 8 10 11 12 13 13 12 12 12 12 12 12 12 12 12 12 12 12 11 11 11 10 10 10 10 9 9 8 8 8 7 6 6 7 9 9 10 10 10 9 7 9
9 10 12 13 13 13 13 13 13 12 12 12 12 12 12 11 11 11 11 11 11 10 10 10 10 9 9 9 8 7 7 6 5 4 5 7 9 10 10 11 11 7 9
11 10 11 12 13 13 13 13 13 12 12 12 12 12 11 11 11 11 11 11 11 10 10 10 10 9 9 8 8 7 6 5 5 4 3 2 6 10 11 11 11 11 10
12 10 11 12 13 13 13 13 13 13 12 12 12 11 11 11 10 10 10 10 10 10 10 9 9 9 9 8 7 6 5 5 6 5 3 5 6 10 11 11 11 11 11
12 11 11 13 13 14 13 13 13 12 12 12 11 11 11 10 10 10 10 9 9 9 9 9 9 9 8 8 7 6 5 6 6 4 5 6 5 9 10 10 10 11 11
12 11 10 13 13 13 13 12 12 12 11 11 11 11 10 10 10 10 9 9 9 9 9 9 8 8 8 7 7 6 6 7 5 3 5 5 5 9 10 10 10 10 10
12 11 11 12 13 12 12 11 11 11 10 10 10 9 9 9 10 10 9 9 9 9 8 8 8 8 7 7 6 6 7 8 2 3 5 6 6 10 10 10 10 10 10
11 11 10 12 12 12 11 10 10 9 9 9 8 7 7 7 8 8 9 9 9 8 7 7 7 7 6 5 5 5 6 7 4 6 6 6 8 10 10 10 10 9 9
9 9 9 9 10 11 11 9 8 8 7 6 5 4 4 5 6 7 8 8 8 7 6 6 5 5 4 4 3 4 5 7 4 3 7 5 8 9 9 9 9 9 9
6 6 7 8 9 9 8 8 7 6 5 3 2 2 2 3 4 7 7 6 6 5 4 4 3 2 2 1 1 3 4 4 2 5 5 6 9 9 9 9 9 9 9
5 5 5 6 6 7 8 8 7 6 4 3 4 5 3 2 3 4 6 5 3 2 1 0 1 2 2 3 3 3 3 0 3 5 4 8 10 10 9 9 8 8 8
5 5 5 5 5 4 5 4 2 2 2 1 1 1 0 2 2 4 5 4 3 2 2 4 5 5 5 2 3 3 1 2 3 5 5 10 10 9 9 9 8 8 8
5 5 5 5 5 5 3 3 2 1 1 2 2 3 3 2 1 2 2 3 3 3 2 2 3 2 1 1 0 1 2 3 3 5 5 10 9 9 9 9 8 8 8
6 4 4 5 5 5 4 3 2 2 2 2 3 3 3 1 1 1 1 1 1 1 1 1 1 2 3 3 2 3 3 3 4 4 5 9 9 9 9 9 9 9 8
5 4 5 5 6 6 3 2 4 3 2 2 2 3 3 2 1 2 2 2 2 2 1 2 3 4 4 5 4 5 4 4 5 5 4 8 9 8 9 9 9 9 9
6 6 5 5 4 4 3 3 3 3 2 3 3 3 3 2 2 2 2 2 2 2 2 2 3 3 2 3 3 4 4 4 4 4 4 5 7 8 8 9 9 10 10
7 6 5 4 5 5 5 4 3 3 3 3 3 4 3 3 3 4 3 3 3 3 3 3 4 3 2 3 3 3 3 3 3 3 3 3 4 6 7 8 8 9 10
7 7 5 4 6 5 4 3 3 3 3 3 3 4 5 5 5 4 3 3 3 3 3 2 3 3 3 3 3 3 3 2 3 3 3 3 2 3 4 7 8 9 10
7 7 5 4 5 4 3 3 3 3 3 3 4 4 5 6 6 4 3 3 4 3 3 4 4 3 2 2 1 2 2 3 3 5 4 4 3 3 3 4 6 8 10
7 7 6 5 5 4 2 3 3 3 3 3 3 3 5 5 6 4 3 5 5 3 3 3 3 3 2 2 2 3 2 2 3 4 4 4 4 4 4 4 2 4 9
5 7 7 6 5 3 2 2 2 2 2 2 3 4 4 4 5 3 3 4 4 3 3 4 3 3 3 2 2 2 2 3 3 3 3 3 4 4 4 4 3 3 3
6 6 6 6 5 5 2 2 2 2 2 3 3 3 4 4 5 4 4 3 3 3 4 4 3 3 2 3 2 1 1 2 2 2 2 3 4 4 4 6 5 4 4
6 6 6 6 6 5 4 2 3 2 1 2 2 1 2 3 4 4 4 3 2 3 2 3 3 3 2 3 3 2 2 1 1 2 2 3 3 3 3 4 5 6 6
7 6 6 6 6 6 5 3 3 3 2 2 2 2 2 3 2 3 3 3 3 3 2 2 3 2 2 2 2 2 2 2 1 1 2 2 3 3 3 4 5 5 5
7 6 5 6 6 6 5 3 1 2 2 2 2 2 3 2 2 2 2 2 3 3 3 3 3 3 3 2 2 2 3 2 1 1 1 1 2 2 2 2 2 3 3
7 6 5 6 5 5 5 5 3 3 2 3 2 2 2 2 1 2 1 1 2 2 3 2 2 3 2 3 3 2 2 2 2 2 1 1 1 1 1 1 2 2 2
Wind_Direction
87 83 78 81 82 81 81 82 80 79 76 74 73 71 69 70 69 68 66 64 62 60 57 54 51 46 45 48 52 52 51 52 54 63 65 61 56 52 47 44 46 55 54
98 91 83 84 84 83 82 82 81 79 76 74 73 70 69 70 69 69 66 63 62 59 56 53 49 45 45 47 53 52 47 42 42 48 63 66 62 55 50 52 51 52 54
98 97 90 87 87 85 83 82 81 79 76 73 73 72 70 68 67 66 65 63 62 60 56 52 47 46 45 46 47 48 41 26 12 9 6 79 73 59 54 55 53 52 54
94 88 88 89 87 84 82 82 81 78 76 72 72 71 69 67 66 65 64 62 61 59 55 50 47 47 46 45 43 40 31 8 351 358 52 64 63 63 58 55 53 52 52
93 89 88 90 88 84 81 80 80 78 75 72 70 69 66 65 65 65 64 61 59 58 55 51 50 48 45 44 40 32 18 355 342 23 73 74 66 65 62 57 53 52 51
100 96 91 91 90 87 83 80 79 77 73 71 68 66 65 65 64 63 59 57 59 58 54 51 50 49 47 45 39 25 5 348 342 60 83 80 72 66 63 58 55 54 52
106 106 105 100 96 92 87 81 79 77 74 70 67 65 64 64 62 61 59 58 59 57 55 53 51 49 48 44 34 17 356 341 356 74 85 81 73 69 65 60 56 52 50
111 115 117 114 107 99 90 83 79 76 73 71 69 68 66 70 70 67 61 58 60 58 55 54 53 49 49 43 30 11 352 344 30 67 83 78 76 70 65 60 55 53 51
113 126 135 134 122 111 101 93 90 87 84 85 85 86 90 94 90 82 70 61 60 58 55 54 56 52 50 43 23 356 343 348 8 41 78 74 72 68 64 59 55 53 51
119 124 131 136 139 135 124 119 123 121 124 132 149 175 166 153 127 99 86 73 65 62 59 55 51 48 42 4 321 319 325 338 32 62 72 77 71 66 63 59 54 51 50
124 134 132 131 132 133 134 141 156 157 169 190 209 224 218 187 151 118 99 109 93 77 68 327 286 269 253 246 254 275 305 303 85 78 67 74 69 63 57 54 51 49 47
135 127 125 128 122 105 101 124 143 127 146 169 85 97 136 89 82 98 132 153 173 203 245 254 258 256 245 230 232 253 309 62 79 89 76 73 67 61 56 52 50 46 43
115 110 118 112 108 110 101 102 92 94 71 43 35 67 43 39 94 120 164 180 206 209 242 249 259 260 222 150 118 104 75 61 70 83 82 77 68 60 55 52 48 45 41
107 101 100 108 104 91 88 104 95 69 62 45 12 45 53 22 31 53 70 43 80 77 348 332 336 19 19 31 38 56 67 79 86 96 91 85 75 64 56 51 47 43 39
118 111 84 77 88 94 86 80 86 61 53 74 9 30 48 27 38 53 62 28 34 33 23 12 23 38 25 21 26 41 44 68 86 91 99 92 84 72 60 51 46 41 38
132 115 105 96 92 106 104 86 84 97 76 54 9 28 50 42 45 49 60 40 34 32 27 36 38 37 40 37 29 39 34 51 85 110 121 104 93 82 68 57 48 42 36
128 120 108 103 83 71 66 64 77 66 72 57 20 8 27 43 48 43 36 37 21 24 33 32 39 21 42 42 38 53 45 42 60 93 112 119 109 91 79 64 53 44 35
122 114 109 103 95 81 72 58 68 61 54 59 39 12 13 33 57 47 25 28 32 30 29 32 42 29 32 36 26 36 46 40 44 53 77 98 110 106 94 79 62 49 39
128 125 126 110 103 103 112 101 71 73 53 57 48 22 12 20 41 55 21 22 37 34 21 31 34 28 28 29 40 49 46 42 30 45 49 56 61 87 104 97 78 58 46
138 131 124 114 117 125 116 95 80 63 64 65 63 40 23 20 26 35 32 35 35 38 24 33 35 23 19 12 40 51 62 72 54 40 37 45 43 48 66 77 83 66 56
146 136 134 142 140 127 101 101 109 102 86 70 72 49 36 36 23 32 40 44 38 45 36 37 29 17 22 14 40 25 28 66 76 65 46 37 40 33 39 47 50 56 58
152 144 145 146 133 119 114 124 116 105 99 89 67 51 41 42 20 24 46 55 55 56 38 28 33 16 3 16 36 34 33 25 14 75 72 55 41 30 28 34 32 42 44
156 153 149 145 137 137 141 102 93 87 93 111 108 83 54 56 37 12 26 39 46 68 55 34 38 37 5 357 42 50 57 55 329 9 60 71 53 35 30 26 36 38 41
165 159 156 155 148 143 141 146 163 157 141 129 126 131 113 77 58 22 24 23 42 65 56 31 45 21 32 357 356 29 55 93 87 353 357 45 59 52 38 36 36 39 42
160 158 158 151 142 137 137 138 161 130 136 120 113 124 122 108 90 61 27 26 35 56 63 52 43 27 34 24 5 9 13 17 7 90 339 336 23 43 53 44 48 41 40
147 151 152 142 134 139 155 160 165 145 139 133 138 139 150 142 122 103 65 39 50 54 54 48 50 49 43 25 13 24 33 30 359 25 10 349 18 334 35 50 57 48 52